Hourly Data Report for March 25, 2003

SHERBROOKE A
QUEBEC

45°26'00.000" N
71°41'00.000" W
241.40 m
7028124
71610
YSC

Download Data

Hourly Data (March 2003)
Hourly Data Report for March 25, 2003
TIME
LST
Temp Definition
°C
Dew Point Definition
°C
Rel Hum Definition
%
Precip. Amount Definition
mm

Wind Dir Definition
10's deg

Wind Spd Definition
km/h
Visibility Definition
km
Stn Press Definition
kPa
Hmdx Definition


Wind Chill Definition


Weather Definition


00:00 -0.7 -4.0 78   7 7 15.0 98.58   -3  
01:00 -2.1 -5.2 79   9 4 15.0 98.55   -4  
02:00 -2.5 -5.3 81   8 4 11.3 98.54   -4  
03:00 -2.8 -5.3 83   6 4 15.0 98.49   -4  
04:00 -2.1 -5.0 80   6 4 15.0 98.44   -4  
05:00 -2.1 -5.6 77   5 6 15.0 98.38   -4  
06:00 -1.5 -4.2 82   4 4 15.0 98.35   -3  
07:00 2.3 -1.5 76   5 4 15.0 98.31      
08:00 4.7 -0.8 67   3 4 24.1 98.26     Rain Showers
09:00 7.9 0.0 57   20 7 24.1 98.18     Cloudy
10:00 8.7 0.1 55   22 4 24.1 98.11     Cloudy
11:00 9.3 0.5 54   15 9 24.1 98.05     Rain
12:00 10.0 0.9 53   16 7 24.1 97.98     Cloudy
13:00 10.9 1.4 52   22 6 24.1 97.93     Rain
14:00 10.8 2.6 57   21 6 24.1 97.86     Cloudy
15:00 10.9 2.3 55   17 7 24.1 97.80     Mostly Cloudy
16:00 12.5 2.3 50   21 6 24.1 97.77     Cloudy
17:00 10.7 2.1 55   29 7 24.1 97.79     Cloudy
18:00 9.2 2.2 62   21 4 15.0 97.89      
19:00 8.1 3.3 72   26 7 15.0 98.01     Rain
20:00 5.9 4.5 91   15 6 8.0 98.04     Rain
21:00 5.8 5.4 97     0 4.8 98.03     Rain
22:00 4.4 4.3 99   36 6 0.2 98.02     Rain
23:00 6.2 6.2 100     0 1.8 98.01     Drizzle

Notes on Data Quality.

Legend

  • E = Estimated
  • M = Missing
  • NA = Not Available*
  • [empty] = Indicates an unobserved value
Date modified: